Weather History for Honolulu, HI

Change the Weather History Date:

Thursday, July 3, 2014

  Actual Average Record
Temperature  
Mean Temperature 82 °F 81 °F  
Max Temperature 89 °F 88 °F 90 °F (1979)
Min Temperature 75 °F 74 °F 68 °F (1958)
Degree Days  
Heating Degree Days 0 0  
Month to date heating degree days 0 0  
Since 1 June heating degree days 0 0  
Since 1 July heating degree days 0 0  
Cooling Degree Days 17 16  
Month to date cooling degree days 52 48  
Year to date cooling degree days 2124 2006  
Since 1 June cooling degree days 515 504  
Growing Degree Days 32 (Base 50)    
Moisture  
Dew Point 68 °F    
Average Humidity 67    
Maximum Humidity 87    
Minimum Humidity 46    
Precipitation  
Precipitation 0.04 in 0.01 in 0.07 in (1982)
Month to date precipitation 0.04 0.03  
Year to date precipitation 10.59 7.86  
Snow  
Snow 0.00 in - - ()
Month to date snowfall 0.0  
Since 1 June snowfall 0.0  
Since 1 July snowfall 0.0  
Snow Depth 0.00 in    
Sea Level Pressure  
Sea Level Pressure 30.05 in    
Wind  
Wind Speed 11 mph (ENE)    
Max Wind Speed 22 mph    
Max Gust Speed 30 mph    
Visibility 10 miles    
Events Rain    
T = Trace of Precipitation, MM = Missing Value Source: NWS Daily Summary

Daily Weather History Graph

Daily Weather History Graph

Search for Another Location

Airport:

Trip Planner

Search our weather history database for the weather conditions in past years. The results will help you decide how hot, cold, wet, or windy it might be!

Date:

Astronomy

Jul. 03, 2014 Rise Set
Actual Time 5:54 AM HST 7:17 PM HST
Civil Twilight 5:29 AM HST 7:42 PM HST
Nautical Twilight 4:59 AM HST 8:12 PM HST
Astronomical Twilight 4:29 AM HST 8:42 PM HST
Moon 11:17 AM HST (7/3) 11:35 PM HST (7/3)
Length of Visible Light 14h 13m
Length of Day
13h 23m
Waxing Crescent, 35% of the Moon is Illuminated
Jul 3
Waxing Crescent
Jul 5
First Quarter
Jul 12
Full
Jul 18
Last Quarter
Jul 26
New

Hourly Weather History & Observations

Time (HST) Temp. Heat Index Dew Point Humidity Pressure Visibility Wind Dir Wind Speed Gust Speed Precip Events Conditions
12:53 AM 78.1 °F - 69.1 °F 74% 30.03 in 10.0 mi ENE 6.9 mph - N/A   Mostly Cloudy
1:53 AM 78.1 °F - 69.1 °F 74% 30.02 in 10.0 mi NE 9.2 mph - N/A   Mostly Cloudy
2:53 AM 78.1 °F - 68.0 °F 71% 30.01 in 10.0 mi ENE 9.2 mph - N/A   Mostly Cloudy
3:53 AM 75.9 °F - 70.0 °F 82% 30.02 in 5.0 mi ENE 12.7 mph 18.4 mph 0.01 in Rain Rain
4:53 AM 75.9 °F - 70.0 °F 82% 30.02 in 10.0 mi NE 5.8 mph - 0.02 in   Mostly Cloudy
5:53 AM 77.0 °F - 70.0 °F 79% 30.03 in 10.0 mi East 9.2 mph - 0.00 in   Scattered Clouds
6:53 AM 75.9 °F - 71.1 °F 85% 30.06 in 10.0 mi ENE 9.2 mph - 0.01 in   Mostly Cloudy
7:53 AM 77.0 °F - 71.1 °F 82% 30.07 in 8.0 mi East 8.1 mph - 0.00 in   Mostly Cloudy
8:53 AM 79.0 °F - 71.1 °F 77% 30.07 in 10.0 mi ENE 8.1 mph - 0.00 in Rain Light Rain
9:53 AM 82.9 °F 85.8 °F 68.0 °F 60% 30.07 in 10.0 mi ENE 17.3 mph 23.0 mph 0.00 in   Scattered Clouds
10:53 AM 86.0 °F 88.2 °F 66.0 °F 51% 30.07 in 10.0 mi ENE 13.8 mph 21.9 mph N/A   Scattered Clouds
11:53 AM 86.0 °F 87.6 °F 64.9 °F 49% 30.06 in 10.0 mi NE 13.8 mph 20.7 mph N/A   Scattered Clouds
12:53 PM 87.1 °F 88.9 °F 64.9 °F 48% 30.05 in 10.0 mi NE 18.4 mph 26.5 mph N/A   Scattered Clouds
1:53 PM 87.1 °F 88.3 °F 64.0 °F 46% 30.04 in 10.0 mi NE 13.8 mph 25.3 mph N/A   Scattered Clouds
2:53 PM 87.1 °F 90.6 °F 68.0 °F 53% 30.02 in 10.0 mi ENE 16.1 mph 27.6 mph N/A   Scattered Clouds
3:53 PM 86.0 °F 89.4 °F 68.0 °F 55% 30.02 in 10.0 mi NE 16.1 mph 26.5 mph N/A   Mostly Cloudy
4:53 PM 84.9 °F 88.2 °F 68.0 °F 57% 30.03 in 10.0 mi ENE 17.3 mph 24.2 mph N/A   Scattered Clouds
5:53 PM 84.0 °F 86.5 °F 66.9 °F 56% 30.04 in 10.0 mi ENE 16.1 mph - N/A   Scattered Clouds
6:53 PM 82.0 °F 84.9 °F 68.0 °F 62% 30.05 in 10.0 mi NE 12.7 mph 20.7 mph N/A   Mostly Cloudy
7:53 PM 80.1 °F 83.2 °F 70.0 °F 71% 30.07 in 10.0 mi ENE 13.8 mph - N/A   Mostly Cloudy
8:28 PM 78.8 °F - 69.8 °F 74% 30.08 in 10.0 mi NE 10.4 mph 19.6 mph N/A   Mostly Cloudy
8:53 PM 79.0 °F - 70.0 °F 74% 30.09 in 10.0 mi NE 10.4 mph 19.6 mph N/A   Mostly Cloudy
9:53 PM 80.1 °F 82.9 °F 69.1 °F 69% 30.10 in 10.0 mi NE 12.7 mph 20.7 mph N/A   Scattered Clouds
10:53 PM 79.0 °F - 68.0 °F 69% 30.10 in 10.0 mi NE 11.5 mph 20.7 mph N/A   Scattered Clouds
11:53 PM 79.0 °F - 68.0 °F 69% 30.10 in 10.0 mi NE 9.2 mph - N/A   Scattered Clouds